Location: Banff
(51.1667°N, 115.5667°W)
Time: 20:50:50
(UTC+00:00)

S-56A Canister/Altair - Pass Details

Date: 12 May 2021
Orbit: 632 x 2500 km, 38.9° (Epoch: 16 June)

Event Time Altitude Azimuth Distance (km) Brightness Sun altitude
Rises 06:02:03 0° 277° (W) 5,870 12.5 -17.5°
Reaches altitude 10° 06:07:41 10° 263° (W) 4,576 11.7 -17.8°
Maximum altitude 06:15:01 19° 226° (SW) 3,432 10.6 -18.2°
Enters shadow 06:18:59 15° 199° (SSW) 3,409 10.4 -18.5°
